TimeCST,TemperatureF,Dew PointF,Humidity,Sea Level PressureIn,VisibilityMPH,Wind Direction,Wind SpeedMPH,Gust SpeedMPH,PrecipitationIn,Events,Conditions,WindDirDegrees,DateUTC
12:14 AM,12.2,8.6,85,29.98,10.0,NNW,20.7,26.5,N/A,Snow,Light Snow,330,2013-12-19 06:14:00
12:34 AM,10.4,6.8,85,29.98,10.0,NNW,20.7,27.6,N/A,,Scattered Clouds,330,2013-12-19 06:34:00
12:54 AM,10.4,6.8,85,29.99,10.0,NNW,20.7,29.9,N/A,,Mostly Cloudy,330,2013-12-19 06:54:00
1:14 AM,10.4,5.0,79,29.99,10.0,NNW,21.9,26.5,N/A,,Mostly Cloudy,330,2013-12-19 07:14:00
1:34 AM,8.6,3.2,79,30.00,10.0,NNW,18.4,25.3,N/A,,Scattered Clouds,330,2013-12-19 07:34:00
1:54 AM,8.6,3.2,79,30.02,10.0,NNW,17.3,24.2,N/A,,Scattered Clouds,330,2013-12-19 07:54:00
2:14 AM,6.8,1.4,79,30.03,10.0,NNW,17.3,28.8,N/A,,Mostly Cloudy,330,2013-12-19 08:14:00
2:34 AM,5.0,-0.4,78,30.04,10.0,NNW,20.7,28.8,N/A,,Mostly Cloudy,330,2013-12-19 08:34:00
2:54 AM,5.0,-0.4,78,30.05,10.0,NNW,19.6,26.5,N/A,,Mostly Cloudy,330,2013-12-19 08:54:00
3:14 AM,3.2,-0.4,85,30.06,10.0,NNW,18.4,26.5,N/A,,Overcast,330,2013-12-19 09:14:00
3:35 AM,3.2,-0.4,85,30.07,7.0,NNW,16.1,24.2,N/A,,Overcast,330,2013-12-19 09:35:00
3:54 AM,3.2,-2.2,78,30.09,10.0,NNW,18.4,23.0,N/A,,Overcast,330,2013-12-19 09:54:00
4:14 AM,1.4,-2.2,85,30.10,10.0,NNW,21.9,25.3,N/A,,Overcast,330,2013-12-19 10:14:00
4:34 AM,1.4,-2.2,85,30.09,10.0,NNW,19.6,28.8,N/A,,Mostly Cloudy,340,2013-12-19 10:34:00
4:54 AM,1.4,-2.2,85,30.09,10.0,NNW,19.6,25.3,N/A,,Mostly Cloudy,340,2013-12-19 10:54:00
5:14 AM,1.4,-4.0,78,30.09,10.0,NNW,18.4,-,N/A,,Scattered Clouds,330,2013-12-19 11:14:00
5:34 AM,1.4,-4.0,78,30.10,10.0,NNW,15.0,24.2,N/A,,Mostly Cloudy,340,2013-12-19 11:34:00
5:54 AM,1.4,-4.0,78,30.09,10.0,NNW,13.8,26.5,N/A,,Mostly Cloudy,340,2013-12-19 11:54:00
6:14 AM,-0.4,-5.8,78,30.09,10.0,NNW,17.3,21.9,N/A,,Mostly Cloudy,340,2013-12-19 12:14:00
6:34 AM,-0.4,-5.8,78,30.09,10.0,North,16.1,21.9,N/A,,Scattered Clouds,350,2013-12-19 12:34:00
6:54 AM,-0.4,-5.8,78,30.11,10.0,NNW,15.0,20.7,N/A,,Mostly Cloudy,340,2013-12-19 12:54:00
7:14 AM,-0.4,-5.8,78,30.11,10.0,NNW,16.1,24.2,N/A,,Scattered Clouds,330,2013-12-19 13:14:00
7:34 AM,-0.4,-5.8,78,30.12,10.0,NNW,16.1,19.6,N/A,,Clear,330,2013-12-19 13:34:00
7:54 AM,-0.4,-5.8,78,30.11,10.0,NNW,16.1,21.9,N/A,,Clear,330,2013-12-19 13:54:00
8:14 AM,-0.4,-5.8,78,30.12,10.0,NW,15.0,-,N/A,,Clear,320,2013-12-19 14:14:00
8:34 AM,-0.4,-5.8,78,30.12,10.0,NNW,12.7,19.6,N/A,,Clear,340,2013-12-19 14:34:00
8:54 AM,-0.4,-5.8,78,30.14,10.0,NNW,16.1,-,N/A,,Clear,330,2013-12-19 14:54:00
9:14 AM,-0.4,-5.8,78,30.15,10.0,NNW,10.4,-,N/A,,Scattered Clouds,330,2013-12-19 15:14:00
9:34 AM,1.4,-4.0,78,30.16,10.0,NNW,13.8,18.4,N/A,,Clear,340,2013-12-19 15:34:00
9:54 AM,1.4,-4.0,78,30.17,10.0,NNW,12.7,19.6,N/A,,Clear,340,2013-12-19 15:54:00
10:14 AM,1.4,-4.0,78,30.17,10.0,NNW,16.1,-,N/A,,Clear,340,2013-12-19 16:14:00
10:34 AM,1.4,-4.0,78,30.19,10.0,NNW,11.5,-,N/A,,Scattered Clouds,340,2013-12-19 16:34:00
10:54 AM,1.4,-4.0,78,30.18,10.0,NNW,11.5,-,N/A,,Mostly Cloudy,340,2013-12-19 16:54:00
11:14 AM,1.4,-2.2,85,30.18,10.0,NNW,11.5,-,N/A,,Mostly Cloudy,340,2013-12-19 17:14:00
11:34 AM,1.4,-4.0,78,30.17,10.0,NNW,11.5,-,N/A,,Scattered Clouds,340,2013-12-19 17:34:00
11:54 AM,1.4,-2.2,85,30.17,10.0,NNW,13.8,-,N/A,,Clear,330,2013-12-19 17:54:00
12:14 PM,1.4,-2.2,85,30.15,10.0,NNW,12.7,-,N/A,,Clear,340,2013-12-19 18:14:00
12:34 PM,3.2,-2.2,78,30.16,10.0,NNW,13.8,-,N/A,,Scattered Clouds,330,2013-12-19 18:34:00
12:54 PM,3.2,-2.2,78,30.16,10.0,NNW,10.4,-,N/A,,Scattered Clouds,330,2013-12-19 18:54:00
1:14 PM,3.2,-2.2,78,30.16,10.0,NW,13.8,18.4,N/A,,Clear,320,2013-12-19 19:14:00
1:34 PM,1.4,-2.2,85,30.16,10.0,NNW,15.0,21.9,N/A,,Clear,330,2013-12-19 19:34:00
1:54 PM,1.4,-2.2,85,30.17,10.0,NW,16.1,21.9,N/A,,Clear,320,2013-12-19 19:54:00
2:14 PM,1.4,-4.0,78,30.17,10.0,NNW,15.0,21.9,N/A,,Clear,330,2013-12-19 20:14:00
2:34 PM,1.4,-2.2,85,30.16,10.0,NNW,12.7,17.3,N/A,,Clear,330,2013-12-19 20:34:00
2:54 PM,1.4,-4.0,78,30.15,10.0,NNW,16.1,19.6,N/A,,Clear,330,2013-12-19 20:54:00
3:14 PM,1.4,-2.2,85,30.15,7.0,NNW,13.8,-,N/A,,Clear,330,2013-12-19 21:14:00
3:34 PM,1.4,-2.2,85,30.15,4.0,NNW,11.5,18.4,N/A,Snow,Light Snow,330,2013-12-19 21:34:00
3:54 PM,1.4,-2.2,85,30.14,4.0,NNW,11.5,18.4,N/A,Snow,Light Snow,330,2013-12-19 21:54:00
4:14 PM,1.4,-2.2,85,30.14,3.0,NNW,13.8,-,N/A,Snow,Light Snow,330,2013-12-19 22:14:00
4:34 PM,1.4,-2.2,85,30.15,1.5,NW,15.0,19.6,N/A,Snow,Light Snow,320,2013-12-19 22:34:00
4:54 PM,1.4,-2.2,85,30.16,1.2,NW,15.0,-,N/A,,Overcast,320,2013-12-19 22:54:00
5:14 PM,1.4,-2.2,85,30.17,1.5,NW,16.1,20.7,N/A,,Overcast,320,2013-12-19 23:14:00
5:34 PM,1.4,-2.2,85,30.17,1.8,NNW,15.0,19.6,N/A,Snow,Light Snow,330,2013-12-19 23:34:00
5:54 PM,1.4,-2.2,85,30.17,1.2,NNW,13.8,21.9,N/A,Snow,Snow,330,2013-12-19 23:54:00
6:14 PM,1.4,-2.2,85,30.17,0.8,NNW,12.7,-,N/A,Snow,Snow,330,2013-12-20 00:14:00
6:34 PM,1.4,-2.2,85,30.16,1.0,NNW,12.7,-,N/A,Snow,Snow,330,2013-12-20 00:34:00
6:54 PM,1.4,-2.2,85,30.16,0.8,NNW,12.7,-,N/A,Snow,Snow,330,2013-12-20 00:54:00
7:14 PM,1.4,-2.2,85,30.16,1.2,NNW,13.8,-,N/A,Snow,Light Snow,340,2013-12-20 01:14:00
7:34 PM,1.4,-0.4,92,30.16,1.8,NNW,11.5,16.1,N/A,Snow,Light Snow,340,2013-12-20 01:34:00
7:54 PM,3.2,-0.4,85,30.16,1.8,NNW,11.5,-,N/A,Snow,Light Snow,340,2013-12-20 01:54:00
8:14 PM,3.2,-0.4,85,30.16,1.5,NNW,11.5,-,N/A,Snow,Light Snow,330,2013-12-20 02:14:00
8:34 PM,3.2,-0.4,85,30.16,2.0,NNW,13.8,-,N/A,Snow,Light Snow,330,2013-12-20 02:34:00
8:54 PM,3.2,-0.4,85,30.16,1.2,NNW,13.8,-,N/A,Snow,Light Snow,340,2013-12-20 02:54:00
9:14 PM,3.2,-0.4,85,30.16,1.2,NNW,12.7,-,N/A,,Overcast,330,2013-12-20 03:14:00
9:34 PM,3.2,-0.4,85,30.16,2.0,NNW,11.5,-,N/A,Snow,Light Snow,330,2013-12-20 03:34:00
9:54 PM,3.2,-0.4,85,30.16,2.0,NNW,13.8,-,N/A,Snow,Light Snow,330,2013-12-20 03:54:00
10:14 PM,3.2,-0.4,85,30.16,3.0,NNW,11.5,-,N/A,Snow,Light Snow,330,2013-12-20 04:14:00
10:34 PM,3.2,1.4,92,30.15,2.5,NNW,11.5,-,N/A,Snow,Light Snow,340,2013-12-20 04:34:00
10:54 PM,5.0,1.4,85,30.15,3.0,NNW,11.5,-,N/A,Snow,Light Snow,330,2013-12-20 04:54:00
11:14 PM,5.0,1.4,85,30.14,4.0,NNW,11.5,-,N/A,Snow,Light Snow,330,2013-12-20 05:14:00
11:34 PM,5.0,1.4,85,30.13,7.0,NNW,8.1,-,0.01,Snow,Light Snow,340,2013-12-20 05:34:00
11:54 PM,5.0,1.4,85,30.13,10.0,NNW,5.8,-,0.01,Snow,Light Snow,340,2013-12-20 05:54:00